EDT,Max TemperatureF,Mean TemperatureF,Min TemperatureF,Max Dew PointF,MeanDew PointF,Min DewpointF,Max Humidity, Mean Humidity, Min Humidity, Max Sea Level PressureIn, Mean Sea Level PressureIn, Min Sea Level PressureIn, Max VisibilityMiles, Mean VisibilityMiles, Min VisibilityMiles, Max Wind SpeedMPH, Mean Wind SpeedMPH, Max Gust SpeedMPH,PrecipitationIn, CloudCover, Events, WindDirDegrees
2013-10-1,75,65,55,59,56,53,94,79,51,30.08,30.04,29.99,10,7,2,12,3,16,0.01,3,,228
2013-10-2,75,63,51,63,55,48,94,83,61,30.11,30.08,30.01,10,6,1,10,4,,0.00,2,,256
2013-10-3,78,64,50,66,58,46,94,82,64,30.12,30.06,30.01,10,7,2,10,3,,0.09,3,Rain,170
2013-10-4,75,70,64,65,63,62,93,81,64,30.07,30.04,30.01,10,9,5,12,6,,0.00,3,,221
2013-10-5,79,70,62,67,64,60,94,86,60,30.09,30.04,29.96,10,5,2,10,3,,0.22,4,Rain,174
2013-10-6,80,70,60,66,62,56,88,75,54,29.94,29.82,29.71,10,9,4,21,9,31,0.09,5,Rain,194
2013-10-7,57,52,46,54,48,40,94,82,55,30.13,29.86,29.73,10,6,1,23,7,32,0.79,6,Rain,240
2013-10-8,64,53,42,49,42,39,93,80,45,30.33,30.23,30.13,10,6,1,7,1,,0.01,1,,89
2013-10-9,68,55,42,48,42,38,89,67,35,30.38,30.31,30.27,10,10,10,12,5,16,0.00,0,,121
2013-10-10,69,54,39,48,43,37,90,71,39,30.27,30.21,30.14,10,10,8,9,4,,0.00,0,,105
2013-10-11,73,56,41,48,44,39,93,70,40,30.16,30.12,30.09,10,10,3,8,2,,0.01,0,,85
2013-10-12,75,60,45,57,51,41,90,73,50,30.16,30.13,30.09,10,10,10,7,3,,0.00,1,,133
2013-10-13,68,64,59,61,56,53,93,80,65,30.31,30.25,30.15,10,7,2,10,6,,0.05,8,Rain,190
2013-10-14,62,52,41,50,43,38,89,68,50,30.38,30.33,30.28,10,10,10,9,4,,0.00,2,,17
2013-10-15,69,55,42,57,51,38,90,80,65,30.27,30.11,29.94,10,10,9,12,3,,0.01,3,,180
2013-10-16,69,58,48,59,56,45,90,85,76,29.94,29.88,29.81,10,8,0,15,9,22,0.86,7,Fog-Rain,220
2013-10-17,60,52,45,48,44,42,90,81,60,29.92,29.87,29.78,10,9,3,14,3,21,0.22,5,Rain,222
2013-10-18,61,54,46,45,42,39,93,71,44,29.98,29.92,29.83,10,9,5,17,10,25,0.27,5,Rain,226
2013-10-19,52,47,42,45,41,38,89,81,63,29.93,29.80,29.73,10,7,2,16,9,22,0.64,7,Rain,241
2013-10-20,57,48,39,39,36,34,89,70,44,29.99,29.95,29.89,10,10,9,15,7,20,0.00,4,,207
2013-10-21,63,54,46,48,39,36,83,61,37,29.99,29.92,29.83,10,10,8,15,10,24,0.06,3,Rain,211
2013-10-22,50,44,39,46,36,29,87,73,50,29.95,29.89,29.83,10,9,4,17,10,23,0.12,6,Rain,251
2013-10-23,46,40,35,37,34,30,93,82,63,29.91,29.83,29.78,10,8,2,16,5,,0.47,8,Rain-Snow,256
2013-10-24,41,36,32,33,31,30,93,85,75,30.12,29.97,29.89,10,6,1,15,10,24,0.84,8,Rain-Snow,234
2013-10-25,46,38,33,36,32,27,89,75,58,30.30,30.23,30.11,10,10,9,15,9,22,0.05,7,Rain,249
2013-10-26,45,40,35,36,29,24,89,65,49,30.20,29.97,29.86,10,10,3,21,12,33,0.05,6,Rain,219
2013-10-27,46,40,33,35,32,29,89,76,56,30.09,30.05,29.97,10,10,10,9,4,,0.16,4,,231
2013-10-28,53,42,32,39,33,28,85,71,52,30.37,30.25,30.11,10,10,10,7,2,,0.01,4,,65
2013-10-29,54,42,30,35,32,27,89,70,45,30.44,30.37,30.29,10,10,10,5,1,,0.00,1,,90
2013-10-30,63,49,35,45,37,31,86,65,35,30.25,30.18,30.06,10,10,10,7,3,,0.00,1,,154
2013-10-31,64,58,53,56,54,46,89,82,70,30.05,29.73,29.32,10,8,3,25,13,36,0.64,7,Rain,181